Gaylord, MI

5:47 PM EDT on June 22, 2017 (GMT -0400)
Otsego County

Weather History for KGLR - April, 2013

Change the Weather History Date:

Saturday, April 13, 2013

  Actual Average Record
Temperature  
Mean Temperature 31 °F -  
Max Temperature 35 °F 53 °F 75 °F (1968)
Min Temperature 28 °F 30 °F 12 °F (1992)
Degree Days  
Heating Degree Days 34    
Moisture  
Dew Point 28 °F    
Average Humidity 90    
Maximum Humidity 100    
Minimum Humidity 70    
Precipitation  
Precipitation 0.02 in - - ()
Sea Level Pressure  
Sea Level Pressure 29.72 in    
Wind  
Wind Speed 8 mph (WSW)    
Max Wind Speed 20 mph    
Max Gust Speed 26 mph    
Visibility 4 miles    
Events Snow    
Averages and records for this station are not official NWS values.
T = Trace of Precipitation, MM = Missing Value Source: NWS Daily Summary

Daily Weather History Graph

Daily Weather History Graph

Search for Another Location

Airport or City:

Trip Planner

Search our weather history database for the weather conditions in past years. The results will help you decide how hot, cold, wet, or windy it might be!

Date:

Astronomy

Apr. 13, 2013 Rise Set
Actual Time 6:57 AM EDT 8:22 PM EDT
Civil Twilight 6:26 AM EDT 8:52 PM EDT
Nautical Twilight 5:49 AM EDT 9:29 PM EDT
Astronomical Twilight 5:10 AM EDT 10:09 PM EDT
Moon 8:40 AM EDT (4/13) 11:53 PM EDT (4/13)
Length of Visible Light 14h 26m
Length of Day
13h 24m
Waxing Crescent, 10% of the Moon is Illuminated
Apr 13
Waxing Crescent
Apr 18
First Quarter
Apr 25
Full
May 2
Last Quarter
May 9
New

Hourly Weather History & Observations

Time (EDT) Temp. Windchill Dew Point Humidity Pressure Visibility Wind Dir Wind Speed Gust Speed Precip Events Conditions
12:01 AM 30.2 °F 26.7 °F 30.2 °F 100% 29.64 in 1.8 mi West 3.5 mph - 0.00 in Snow Light Snow
12:27 AM 30.2 °F - 30.2 °F 100% 29.65 in 3.0 mi Calm Calm - 0.01 in Snow Light Snow
12:53 AM 30.9 °F 25.2 °F 30.0 °F 96% 29.69 in 3.0 mi West 5.8 mph - 0.01 in Snow Light Snow
1:11 AM 30.2 °F 21.3 °F 30.2 °F 100% 29.65 in 1.8 mi WSW 10.4 mph - 0.00 in Snow Light Snow
1:17 AM 30.2 °F 21.3 °F 30.2 °F 100% 29.65 in 3.0 mi WSW 10.4 mph - 0.00 in Snow Light Snow
1:39 AM 30.2 °F 22.6 °F 30.2 °F 100% 29.65 in 1.8 mi WSW 8.1 mph - 0.00 in Snow Light Snow
1:53 AM 30.0 °F 24.1 °F 30.0 °F 100% 29.70 in 1.5 mi WSW 5.8 mph - 0.00 in Snow Light Snow
2:05 AM 30.2 °F 24.3 °F 30.2 °F 100% 29.65 in 2.0 mi WSW 5.8 mph - 0.00 in Snow Light Snow
2:14 AM 30.2 °F 21.3 °F 30.2 °F 100% 29.65 in 1.8 mi WSW 10.4 mph - 0.00 in Snow Light Snow
2:21 AM 30.2 °F 20.8 °F 28.4 °F 93% 29.65 in 3.0 mi WSW 11.5 mph - 0.00 in Snow Light Snow
2:29 AM 30.2 °F 20.8 °F 30.2 °F 100% 29.65 in 8.0 mi WSW 11.5 mph - 0.00 in   Overcast
2:53 AM 30.0 °F 20.0 °F 30.0 °F 100% 29.70 in 10.0 mi West 12.7 mph - 0.00 in   Overcast
3:25 AM 30.2 °F 20.2 °F 28.4 °F 93% 29.66 in 1.8 mi WSW 12.7 mph - 0.00 in Snow Light Snow
3:32 AM 30.2 °F 20.2 °F 28.4 °F 93% 29.66 in 3.0 mi West 12.7 mph - 0.00 in Snow Light Snow
3:43 AM 30.2 °F 21.3 °F 28.4 °F 93% 29.66 in 10.0 mi West 10.4 mph - 0.00 in   Overcast
3:53 AM 30.0 °F 23.2 °F 28.0 °F 92% 29.70 in 10.0 mi West 6.9 mph - 0.00 in   Overcast
4:27 AM 30.2 °F 23.4 °F 28.4 °F 93% 29.66 in 1.8 mi West 6.9 mph - 0.00 in Snow Light Snow
4:48 AM 28.4 °F 20.4 °F 28.4 °F 100% 29.66 in 2.0 mi West 8.1 mph - 0.00 in Snow Light Snow
4:53 AM 28.9 °F 19.8 °F 27.0 °F 92% 29.71 in 5.0 mi West 10.4 mph 16.1 mph 0.00 in Snow Light Snow
5:17 AM 28.4 °F 20.4 °F 26.6 °F 93% 29.66 in 10.0 mi West 8.1 mph - 0.00 in   Overcast
5:31 AM 28.4 °F 19.7 °F 26.6 °F 93% 29.66 in 10.0 mi West 9.2 mph - 0.00 in   Overcast
5:53 AM 28.9 °F 21.1 °F 27.0 °F 92% 29.71 in 10.0 mi West 8.1 mph - 0.00 in   Overcast
6:09 AM 28.4 °F 21.2 °F 26.6 °F 93% 29.67 in 10.0 mi West 6.9 mph - N/A   Overcast
6:16 AM 28.4 °F 20.4 °F 26.6 °F 93% 29.67 in 10.0 mi West 8.1 mph - N/A   Overcast
6:25 AM 28.4 °F 21.2 °F 26.6 °F 93% 29.67 in 9.0 mi West 6.9 mph - N/A   Overcast
6:32 AM 28.4 °F 23.3 °F 26.6 °F 93% 29.66 in 10.0 mi West 4.6 mph - N/A   Overcast
6:40 AM 28.4 °F 21.2 °F 26.6 °F 93% 29.66 in 10.0 mi West 6.9 mph - N/A   Overcast
6:53 AM 28.9 °F 22.8 °F 27.0 °F 92% 29.71 in 10.0 mi West 5.8 mph - N/A   Overcast
7:26 AM 28.4 °F 21.2 °F 26.6 °F 93% 29.67 in 2.5 mi WSW 6.9 mph - 0.00 in Snow Light Snow
7:35 AM 28.4 °F 21.2 °F 26.6 °F 93% 29.67 in 3.0 mi WSW 6.9 mph - 0.00 in Snow Light Snow
7:45 AM 28.4 °F 21.2 °F 26.6 °F 93% 29.67 in 6.0 mi WSW 6.9 mph - 0.00 in Snow Light Snow
8:49 AM 28.4 °F 22.2 °F 28.4 °F 100% 29.67 in 2.5 mi SW 5.8 mph - 0.00 in Snow Light Snow
8:50 AM 28.4 °F 22.2 °F 28.4 °F 100% 29.68 in 2.5 mi SW 5.8 mph - 0.00 in Snow Light Snow
8:53 AM 28.9 °F 22.8 °F 27.0 °F 92% 29.73 in 2.5 mi SW 5.8 mph - 0.00 in Snow Light Snow
8:56 AM 28.4 °F 23.3 °F 26.6 °F 93% 29.67 in 3.0 mi SW 4.6 mph - 0.00 in Snow Light Snow
9:24 AM 30.2 °F 24.3 °F 28.4 °F 93% 29.67 in 2.5 mi SW 5.8 mph - 0.00 in Snow Light Snow
9:31 AM 30.2 °F 23.4 °F 28.4 °F 93% 29.67 in 4.0 mi SW 6.9 mph - 0.00 in Snow Light Snow
9:43 AM 30.2 °F 23.4 °F 26.6 °F 86% 29.66 in 5.0 mi SW 6.9 mph - 0.00 in Snow Light Snow
9:53 AM 30.0 °F 22.4 °F 27.0 °F 88% 29.71 in 3.0 mi SW 8.1 mph - 0.00 in Snow Light Snow
9:56 AM 30.2 °F 23.4 °F 26.6 °F 86% 29.66 in 2.5 mi SW 6.9 mph - 0.00 in Snow Light Snow
10:14 AM 30.2 °F 23.4 °F 28.4 °F 93% 29.66 in 1.8 mi SW 6.9 mph - 0.00 in Snow Light Snow
10:25 AM 30.2 °F 23.4 °F 28.4 °F 93% 29.66 in 1.2 mi SSW 6.9 mph - 0.00 in Snow Light Snow
10:53 AM 30.9 °F 25.2 °F 28.9 °F 92% 29.70 in 2.5 mi SW 5.8 mph - 0.00 in Snow Light Snow
11:07 AM 30.2 °F 24.3 °F 28.4 °F 93% 29.66 in 1.8 mi SW 5.8 mph - 0.00 in Snow Light Snow
11:22 AM 30.2 °F 23.4 °F 28.4 °F 93% 29.66 in 2.0 mi SSW 6.9 mph - 0.00 in Snow Light Snow
11:35 AM 30.2 °F 24.3 °F 30.2 °F 100% 29.66 in 2.0 mi SSW 5.8 mph - 0.00 in Snow Light Snow
11:48 AM 32.0 °F 24.2 °F 30.2 °F 93% 29.66 in 1.0 mi SW 9.2 mph - 0.01 in Snow Light Snow
11:49 AM 32.0 °F 24.8 °F 30.0 °F 92% 29.71 in 1.0 mi SW 8.1 mph - 0.01 in Snow Light Snow
11:51 AM 32.0 °F 24.8 °F 30.2 °F 93% 29.66 in 0.8 mi SW 8.1 mph - 0.00 in Snow Light Snow
12:11 PM 32.0 °F 22.5 °F 30.2 °F 93% 29.66 in 1.5 mi WSW 12.7 mph - 0.00 in Snow Light Snow
12:13 PM 33.8 °F 24.8 °F 30.2 °F 87% 29.67 in 3.0 mi WSW 12.7 mph - 0.00 in Snow Light Snow
12:17 PM 33.8 °F 23.9 °F 30.2 °F 87% 29.66 in 6.0 mi WSW 15.0 mph - 0.00 in Snow Light Snow
12:39 PM 33.8 °F 25.3 °F 30.2 °F 87% 29.66 in 4.0 mi WSW 11.5 mph - 0.00 in Snow Light Snow
12:53 PM 34.0 °F 25.0 °F 30.0 °F 85% 29.70 in 8.0 mi WSW 12.7 mph - 0.00 in   Overcast
1:07 PM 33.8 °F 23.9 °F 30.2 °F 87% 29.66 in 2.5 mi WSW 15.0 mph - 0.00 in Snow Light Snow
1:13 PM 33.8 °F 23.5 °F 30.2 °F 87% 29.66 in 6.0 mi WSW 16.1 mph - 0.00 in Snow Light Snow
1:23 PM 33.8 °F 23.9 °F 30.2 °F 87% 29.67 in 1.8 mi West 15.0 mph - 0.00 in Snow Light Snow
1:35 PM 33.8 °F 24.3 °F 30.2 °F 87% 29.67 in 4.0 mi West 13.8 mph 19.6 mph 0.00 in Snow Light Snow
1:46 PM 33.8 °F 25.3 °F 30.2 °F 87% 29.67 in 1.5 mi West 11.5 mph 21.9 mph 0.00 in Snow Light Snow
1:49 PM 33.8 °F 25.8 °F 30.2 °F 87% 29.67 in 0.8 mi West 10.4 mph 21.9 mph 0.00 in Snow Light Snow
1:53 PM 33.1 °F 24.4 °F 30.0 °F 89% 29.72 in 0.8 mi West 11.5 mph 21.9 mph 0.00 in Snow Light Snow
1:57 PM 33.8 °F 23.9 °F 28.4 °F 81% 29.67 in 1.8 mi West 15.0 mph 20.7 mph 0.00 in Snow Light Snow
1:59 PM 33.8 °F 23.2 °F 28.4 °F 81% 29.67 in 4.0 mi West 17.3 mph 21.9 mph 0.00 in Snow Light Snow
2:10 PM 33.8 °F 25.8 °F 28.4 °F 81% 29.68 in 9.0 mi WNW 10.4 mph 20.7 mph 0.00 in Snow Light Snow
2:53 PM 33.1 °F 24.4 °F 27.0 °F 78% 29.74 in 8.0 mi West 11.5 mph 21.9 mph 0.00 in   Overcast
3:53 PM 33.1 °F 24.9 °F 26.1 °F 75% 29.76 in 8.0 mi West 10.4 mph 23.0 mph 0.00 in Snow Light Snow
4:18 PM 33.8 °F 27.0 °F 24.8 °F 70% 29.73 in 10.0 mi West 8.1 mph 25.3 mph 0.00 in   Overcast
4:53 PM 33.1 °F 21.5 °F 24.1 °F 70% 29.79 in 10.0 mi West 19.6 mph 26.5 mph 0.00 in   Overcast
5:02 PM 30.2 °F 18.9 °F 24.8 °F 80% 29.75 in 1.8 mi West 16.1 mph 26.5 mph 0.00 in Snow Light Snow
5:10 PM 32.0 °F 20.1 °F 26.6 °F 80% 29.75 in 3.0 mi West 19.6 mph - 0.00 in Snow Light Snow
5:48 PM 32.0 °F 20.5 °F 26.6 °F 80% 29.75 in 7.0 mi West 18.4 mph 21.9 mph 0.00 in Snow Light Snow
5:53 PM 30.9 °F 20.7 °F 25.0 °F 79% 29.81 in 7.0 mi West 13.8 mph 21.9 mph 0.00 in Snow Light Snow
6:08 PM 30.2 °F 21.3 °F 26.6 °F 86% 29.76 in 2.5 mi West 10.4 mph - 0.00 in Snow Light Snow
6:43 PM 30.2 °F 21.3 °F 26.6 °F 86% 29.78 in 9.0 mi West 10.4 mph - 0.00 in   Overcast
6:53 PM 30.9 °F 21.7 °F 25.0 °F 79% 29.83 in 7.0 mi West 11.5 mph - 0.00 in Snow Light Snow
7:25 PM 30.2 °F 18.5 °F 26.6 °F 86% 29.79 in 1.5 mi West 17.3 mph - 0.01 in Snow Light Snow
7:36 PM 30.2 °F 18.5 °F 26.6 °F 86% 29.79 in 4.0 mi West 17.3 mph 21.9 mph 0.01 in Snow Light Snow
8:53 PM 30.9 °F 22.2 °F 26.1 °F 82% 29.87 in 7.0 mi West 10.4 mph 19.6 mph 0.00 in Snow Light Snow
9:08 PM 30.2 °F 21.9 °F 26.6 °F 86% 29.82 in 1.8 mi West 9.2 mph - 0.00 in Snow Light Snow
9:15 PM 30.2 °F 21.9 °F 26.6 °F 86% 29.83 in 3.0 mi West 9.2 mph - 0.00 in Snow Light Snow
9:42 PM 30.2 °F 21.9 °F 26.6 °F 86% 29.84 in 3.0 mi West 9.2 mph - 0.00 in Snow Light Snow
9:49 PM 30.2 °F 23.4 °F 28.4 °F 93% 29.84 in 2.0 mi West 6.9 mph - 0.00 in Snow Light Snow
9:53 PM 30.0 °F 23.2 °F 27.0 °F 88% 29.89 in 3.0 mi West 6.9 mph - 0.00 in Snow Light Snow
10:17 PM 30.2 °F 23.4 °F 26.6 °F 86% 29.85 in 7.0 mi West 6.9 mph - 0.00 in Snow Light Snow
10:23 PM 30.2 °F 22.6 °F 28.4 °F 93% 29.85 in 2.5 mi West 8.1 mph - 0.00 in Snow Light Snow
10:34 PM 30.2 °F 25.4 °F 28.4 °F 93% 29.85 in 6.0 mi West 4.6 mph - 0.00 in Snow Light Snow
10:53 PM 30.0 °F 23.2 °F 27.0 °F 88% 29.91 in 4.0 mi West 6.9 mph - 0.00 in Snow Light Snow
11:00 PM 30.2 °F 22.6 °F 26.6 °F 86% 29.86 in 2.5 mi West 8.1 mph - 0.00 in Snow Light Snow
11:07 PM 30.2 °F 23.4 °F 28.4 °F 93% 29.86 in 1.5 mi West 6.9 mph - 0.00 in Snow Light Snow
11:16 PM 28.4 °F 22.2 °F 26.6 °F 93% 29.86 in 3.0 mi West 5.8 mph - 0.00 in Snow Light Snow
11:53 PM 28.9 °F 22.8 °F 28.0 °F 96% 29.91 in 9.0 mi West 5.8 mph - 0.00 in   Overcast
11:59 PM 28.4 °F 21.2 °F 26.6 °F 93% 29.86 in 2.5 mi West 6.9 mph - 0.00 in Snow Light Snow